Total_Precipitation_Accumulation
0.00 0.01 0.05 0.08 0.07 0.07 0.05 0.06 0.07 0.07 0.06 0.08 0.10 0.09 0.08 0.07 0.08 0.09 0.03 0.00 0.00 0.00 0.00 0.00 0.00 0.00 0.00 0.02 0.00 0.00 0.00 0.00 0.01 0.14 0.03 0.01 0.00 0.00 0.00 0.00 0.00 0.00 0.00 0.00 0.00 0.00 0.00
0.00 0.00 0.00 0.01 0.03 0.06 0.07 0.08 0.08 0.08 0.08 0.08 0.10 0.10 0.11 0.11 0.09 0.08 0.05 0.00 0.00 0.00 0.01 0.00 0.00 0.00 0.00 0.00 0.00 0.00 0.00 0.00 0.00 0.03 0.03 0.01 0.00 0.00 0.00 0.00 0.00 0.00 0.00 0.00 0.00 0.00 0.00
0.00 0.00 0.00 0.00 0.00 0.04 0.08 0.10 0.10 0.10 0.10 0.11 0.12 0.12 0.10 0.10 0.12 0.11 0.08 0.01 0.01 0.01 0.00 0.00 0.00 0.00 0.00 0.00 0.00 0.00 0.00 0.00 0.00 0.02 0.02 0.02 0.01 0.01 0.02 0.00 0.00 0.00 0.00 0.00 0.00 0.00 0.00
0.00 0.00 0.00 0.00 0.00 0.01 0.05 0.07 0.07 0.08 0.10 0.11 0.14 0.15 0.14 0.14 0.13 0.13 0.10 0.04 0.02 0.04 0.04 0.01 0.01 0.00 0.00 0.00 0.00 0.00 0.00 0.00 0.00 0.00 0.01 0.02 0.01 0.03 0.03 0.01 0.00 0.01 0.00 0.00 0.00 0.00 0.00
0.00 0.00 0.00 0.00 0.01 0.01 0.01 0.02 0.04 0.06 0.09 0.11 0.13 0.12 0.13 0.16 0.17 0.15 0.11 0.07 0.02 0.02 0.05 0.12 0.02 0.00 0.00 0.00 0.00 0.00 0.00 0.00 0.00 0.00 0.00 0.00 0.00 0.00 0.01 0.02 0.01 0.01 0.00 0.00 0.00 0.00 0.00
0.01 0.01 0.01 0.01 0.01 0.02 0.01 0.01 0.03 0.06 0.07 0.09 0.11 0.15 0.16 0.18 0.22 0.21 0.20 0.22 0.08 0.05 0.06 0.04 0.01 0.00 0.00 0.00 0.00 0.00 0.00 0.00 0.00 0.00 0.00 0.00 0.00 0.00 0.00 0.01 0.00 0.00 0.00 0.00 0.00 0.00 0.00
0.01 0.01 0.01 0.01 0.02 0.02 0.02 0.02 0.03 0.05 0.07 0.08 0.12 0.15 0.18 0.22 0.25 0.37 0.51 0.35 0.07 0.02 0.03 0.00 0.00 0.00 0.00 0.00 0.00 0.00 0.00 0.00 0.00 0.00 0.00 0.00 0.00 0.00 0.00 0.00 0.00 0.00 0.00 0.00 0.00 0.00 0.00
0.01 0.01 0.02 0.03 0.02 0.01 0.02 0.03 0.04 0.05 0.06 0.10 0.15 0.19 0.18 0.20 0.26 0.58 0.76 0.25 0.01 0.00 0.00 0.00 0.00 0.00 0.00 0.00 0.00 0.00 0.00 0.00 0.00 0.00 0.00 0.00 0.00 0.00 0.00 0.00 0.00 0.00 0.00 0.00 0.00 0.00 0.00
0.02 0.02 0.03 0.03 0.02 0.02 0.03 0.04 0.05 0.10 0.17 0.19 0.21 0.19 0.22 0.23 0.40 0.79 0.65 0.22 0.02 0.00 0.00 0.00 0.00 0.00 0.00 0.00 0.00 0.00 0.00 0.00 0.00 0.00 0.00 0.00 0.00 0.00 0.00 0.00 0.00 0.00 0.00 0.00 0.00 0.00 0.00
0.02 0.02 0.04 0.03 0.02 0.03 0.05 0.06 0.10 0.14 0.28 0.38 0.25 0.22 0.26 0.42 0.91 0.59 0.50 0.20 0.10 0.00 0.00 0.00 0.00 0.00 0.00 0.00 0.00 0.00 0.00 0.00 0.00 0.00 0.00 0.01 0.00 0.00 0.00 0.00 0.00 0.00 0.00 0.00 0.00 0.00 0.00
0.02 0.03 0.04 0.03 0.04 0.06 0.09 0.11 0.16 0.19 0.22 0.34 0.41 0.30 0.38 0.70 0.91 0.65 0.36 0.23 0.19 0.03 0.00 0.00 0.00 0.00 0.01 0.00 0.00 0.00 0.00 0.00 0.00 0.00 0.00 0.01 0.00 0.00 0.00 0.00 0.00 0.00 0.00 0.00 0.00 0.01 0.02
0.03 0.04 0.05 0.05 0.07 0.09 0.14 0.15 0.16 0.09 0.08 0.29 0.60 0.68 0.83 0.75 0.76 0.54 0.38 0.37 0.34 0.09 0.00 0.00 0.00 0.03 0.03 0.02 0.01 0.00 0.01 0.02 0.01 0.02 0.01 0.00 0.00 0.00 0.00 0.00 0.00 0.00 0.02 0.01 0.02 0.05 0.07
0.04 0.05 0.06 0.06 0.08 0.12 0.14 0.14 0.11 0.14 0.25 0.40 0.59 0.92 0.93 0.79 0.71 0.63 0.72 0.71 0.44 0.07 0.00 0.01 0.01 0.03 0.01 0.01 0.02 0.01 0.02 0.04 0.06 0.09 0.08 0.05 0.01 0.00 0.00 0.00 0.00 0.01 0.06 0.14 0.14 0.13 0.04
0.04 0.08 0.08 0.08 0.09 0.13 0.13 0.12 0.20 0.29 0.33 0.26 0.59 0.82 0.91 0.75 0.64 1.02 1.15 0.58 0.17 0.01 0.00 0.00 0.00 0.01 0.01 0.00 0.01 0.01 0.03 0.03 0.03 0.10 0.15 0.08 0.04 0.01 0.00 0.00 0.00 0.01 0.02 0.09 0.06 0.02 0.00
0.05 0.09 0.10 0.09 0.10 0.11 0.08 0.08 0.12 0.16 0.24 0.53 0.48 1.00 0.95 0.92 0.87 1.13 1.12 0.42 0.04 0.00 0.00 0.00 0.00 0.01 0.01 0.00 0.00 0.02 0.02 0.01 0.00 0.01 0.06 0.05 0.01 0.00 0.00 0.00 0.03 0.12 0.15 0.04 0.12 0.09 0.18
0.07 0.10 0.11 0.10 0.09 0.08 0.04 0.03 0.13 0.33 0.39 0.40 0.31 1.10 0.95 0.69 1.01 1.26 0.79 0.21 0.00 0.00 0.00 0.00 0.00 0.00 0.00 0.00 0.01 0.01 0.01 0.00 0.00 0.00 0.00 0.01 0.02 0.00 0.00 0.01 0.00 0.04 0.05 0.20 0.47 0.23 0.11
0.07 0.11 0.11 0.11 0.08 0.05 0.02 0.06 0.24 0.26 0.31 0.46 0.68 0.96 0.86 0.73 1.08 1.19 0.65 0.15 0.00 0.00 0.00 0.00 0.00 0.00 0.00 0.00 0.00 0.00 0.00 0.00 0.00 0.00 0.00 0.01 0.03 0.01 0.01 0.01 0.01 0.02 0.07 0.11 0.17 0.13 0.08
0.09 0.11 0.09 0.10 0.07 0.03 0.03 0.11 0.18 0.27 0.42 0.57 0.86 0.85 0.85 0.92 1.17 0.76 0.23 0.02 0.00 0.00 0.00 0.00 0.00 0.00 0.00 0.00 0.00 0.00 0.00 0.00 0.00 0.00 0.00 0.00 0.07 0.05 0.00 0.00 0.01 0.03 0.00 0.03 0.16 0.04 0.05
0.10 0.10 0.08 0.10 0.08 0.03 0.03 0.07 0.21 0.33 0.59 0.81 0.76 0.97 0.94 0.58 0.45 0.25 0.07 0.00 0.00 0.00 0.00 0.01 0.01 0.00 0.00 0.00 0.00 0.00 0.00 0.00 0.00 0.00 0.00 0.00 0.09 0.12 0.09 0.10 0.09 0.09 0.02 0.04 0.12 0.22 0.16
0.09 0.09 0.09 0.09 0.07 0.03 0.02 0.03 0.16 0.29 0.53 0.94 0.80 1.41 1.52 0.88 0.22 0.03 0.01 0.00 0.00 0.00 0.00 0.03 0.04 0.05 0.03 0.01 0.00 0.00 0.00 0.00 0.00 0.00 0.00 0.06 0.13 0.11 0.13 0.24 0.37 0.32 0.11 0.11 0.31 0.39 0.07
0.08 0.07 0.09 0.11 0.06 0.03 0.01 0.02 0.10 0.24 0.38 0.61 0.66 0.57 0.44 0.53 0.21 0.00 0.00 0.00 0.00 0.01 0.02 0.05 0.05 0.06 0.05 0.03 0.01 0.00 0.00 0.00 0.00 0.01 0.11 0.24 0.21 0.11 0.12 0.20 0.48 0.46 0.20 0.16 0.27 0.09 0.06
0.07 0.06 0.09 0.09 0.04 0.02 0.00 0.01 0.07 0.40 0.57 0.50 0.63 0.30 0.02 0.01 0.03 0.00 0.00 0.00 0.00 0.01 0.04 0.07 0.03 0.03 0.04 0.04 0.01 0.00 0.00 0.00 0.00 0.01 0.09 0.22 0.31 0.28 0.28 0.31 0.31 0.30 0.06 0.08 0.12 0.05 0.02
0.06 0.06 0.10 0.08 0.02 0.02 0.00 0.01 0.09 0.46 0.65 0.58 0.59 0.32 0.03 0.01 0.01 0.00 0.00 0.00 0.00 0.03 0.02 0.01 0.02 0.06 0.03 0.02 0.01 0.01 0.01 0.02 0.01 0.01 0.11 0.30 0.35 0.49 0.39 0.30 0.30 0.22 0.04 0.04 0.06 0.07 0.03
0.06 0.07 0.09 0.07 0.02 0.02 0.01 0.02 0.07 0.27 0.50 0.66 0.62 0.38 0.12 0.03 0.01 0.00 0.00 0.00 0.00 0.01 0.01 0.00 0.01 0.03 0.02 0.02 0.01 0.01 0.01 0.01 0.02 0.01 0.03 0.16 0.34 0.57 0.75 0.63 0.66 0.40 0.12 0.13 0.14 0.11 0.07
0.06 0.09 0.07 0.04 0.02 0.01 0.01 0.01 0.04 0.13 0.23 0.39 0.44 0.37 0.10 0.02 0.01 0.00 0.00 0.01 0.02 0.02 0.00 0.00 0.00 0.00 0.02 0.05 0.08 0.07 0.05 0.02 0.00 0.00 0.00 0.03 0.17 0.26 0.33 0.30 0.15 0.10 0.13 0.09 0.08 0.09 0.03
0.06 0.07 0.06 0.02 0.02 0.02 0.01 0.01 0.03 0.08 0.09 0.37 0.57 0.58 0.13 0.02 0.01 0.00 0.02 0.02 0.06 0.06 0.01 0.00 0.00 0.02 0.06 0.09 0.16 0.14 0.03 0.00 0.00 0.00 0.00 0.00 0.02 0.09 0.05 0.08 0.05 0.02 0.02 0.02 0.02 0.01 0.00
0.05 0.04 0.03 0.02 0.01 0.01 0.01 0.01 0.04 0.09 0.12 0.29 0.56 0.47 0.13 0.02 0.00 0.00 0.01 0.01 0.00 0.01 0.01 0.00 0.03 0.07 0.11 0.14 0.18 0.08 0.01 0.00 0.00 0.00 0.00 0.00 0.01 0.01 0.01 0.02 0.00 0.00 0.00 0.00 0.00 0.01 0.00
0.04 0.03 0.03 0.02 0.01 0.01 0.01 0.01 0.03 0.08 0.14 0.21 0.35 0.39 0.22 0.03 0.01 0.00 0.00 0.00 0.00 0.00 0.00 0.01 0.05 0.11 0.18 0.20 0.17 0.07 0.01 0.00 0.00 0.00 0.00 0.00 0.00 0.00 0.00 0.00 0.00 0.00 0.00 0.00 0.00 0.00 0.00
0.03 0.02 0.02 0.02 0.01 0.01 0.01 0.01 0.02 0.03 0.11 0.22 0.27 0.29 0.18 0.03 0.01 0.00 0.00 0.00 0.00 0.00 0.00 0.00 0.06 0.13 0.22 0.19 0.11 0.06 0.02 0.00 0.00 0.00 0.00 0.00 0.00 0.00 0.00 0.00 0.00 0.00 0.00 0.00 0.00 0.00 0.00